| time (UTC) | temp F | wind direction | speed MPH | gust MPH | rain 1hr in | rain 24hr in | rain mn in | humidity % | barometer mb |
| 20260505125011 | 74 | 136 | 1.0 | 9.0 | 0.00 | 0.00 | 0.00 | 90 | 1009.0 |
| 20260505124510 | 74 | 159 | 1.0 | 5.0 | 0.00 | 0.00 | 0.00 | 90 | 1009.1 |
| 20260505124010 | 73 | 143 | 0.0 | 3.0 | 0.00 | 0.00 | 0.00 | 90 | 1009.4 |
| 20260505123510 | 73 | 244 | 0.0 | 3.0 | 0.00 | 0.00 | 0.00 | 90 | 1009.6 |
| 20260505123010 | 73 | 188 | 0.0 | 3.0 | 0.00 | 0.00 | 0.00 | 91 | 1009.4 |
| 20260505122010 | 73 | 164 | 0.0 | 0.0 | 0.00 | 0.00 | 0.00 | 90 | 1009.5 |
| 20260505121510 | 72 | 156 | 0.0 | 0.0 | 0.00 | 0.00 | 0.00 | 90 | 1009.3 |
| 20260505121010 | 72 | 128 | 0.0 | 2.0 | 0.00 | 0.00 | 0.00 | 90 | 1009.4 |
| 20260505120510 | 72 | 131 | 0.0 | 2.0 | 0.00 | 0.00 | 0.00 | 90 | 1009.0 |
| 20260505120010 | 72 | 179 | 1.0 | 3.0 | 0.00 | 0.00 | 0.00 | 91 | 1009.0 |
| 20260505115510 | 72 | 215 | 1.0 | 3.0 | 0.00 | 0.00 | 0.00 | 90 | 1008.9 |
| 20260505115010 | 72 | 213 | 1.0 | 3.0 | 0.00 | 0.00 | 0.00 | 90 | 1008.9 |
| 20260505114510 | 72 | 164 | 1.0 | 3.0 | 0.00 | 0.00 | 0.00 | 90 | 1009.0 |
| 20260505114010 | 72 | 121 | 0.0 | 3.0 | 0.00 | 0.00 | 0.00 | 90 | 1009.1 |
| 20260505113510 | 72 | 146 | 1.0 | 3.0 | 0.00 | 0.00 | 0.00 | 90 | 1009.3 |
| 20260505113010 | 72 | 203 | 0.0 | 3.0 | 0.00 | 0.00 | 0.00 | 90 | 1009.1 |
| 20260505112510 | 72 | 148 | 0.0 | 2.0 | 0.00 | 0.00 | 0.00 | 90 | 1009.2 |
| 20260505112010 | 72 | 350 | 0.0 | 4.0 | 0.00 | 0.00 | 0.00 | 90 | 1009.1 |
| 20260505111510 | 72 | 206 | 1.0 | 4.0 | 0.00 | 0.00 | 0.00 | 90 | 1009.1 |
| 20260505111010 | 72 | 174 | 1.0 | 5.0 | 0.00 | 0.00 | 0.00 | 90 | 1009.0 |
| 20260505102011 | 72 | 167 | 1.0 | 5.0 | 0.00 | 0.00 | 0.00 | 90 | 1009.0 |
| 20260505101511 | 71 | 159 | 0.0 | 2.0 | 0.00 | 0.00 | 0.00 | 90 | 1009.0 |
| 20260505101011 | 72 | 183 | 1.0 | 1.0 | 0.00 | 0.00 | 0.00 | 89 | 1009.1 |
| 20260505100511 | 72 | 122 | 0.0 | 2.0 | 0.00 | 0.00 | 0.00 | 89 | 1009.3 |
| 20260505100011 | 72 | 154 | 0.0 | 2.0 | 0.00 | 0.00 | 0.00 | 89 | 1009.3 |
| 20260505095511 | 72 | 139 | 0.0 | 0.0 | 0.00 | 0.00 | 0.00 | 89 | 1009.4 |
| 20260505095011 | 72 | 157 | 0.0 | 0.0 | 0.00 | 0.00 | 0.00 | 89 | 1009.3 |
| 20260505094511 | 72 | 171 | 0.0 | 3.0 | 0.00 | 0.00 | 0.00 | 89 | 1009.3 |
| 20260505093011 | 71 | 200 | 0.0 | 4.0 | 0.00 | 0.00 | 0.00 | 89 | 1009.5 |
| 20260505092511 | 71 | 198 | 1.0 | 2.0 | 0.00 | 0.00 | 0.00 | 89 | 1009.5 |
| 20260505092011 | 71 | 143 | 0.0 | 3.0 | 0.00 | 0.00 | 0.00 | 89 | 1009.5 |
| 20260505091511 | 71 | 142 | 0.0 | 3.0 | 0.00 | 0.00 | 0.00 | 89 | 1009.5 |
| 20260505091011 | 71 | 177 | 0.0 | 3.0 | 0.00 | 0.00 | 0.00 | 89 | 1009.4 |
| 20260505090511 | 71 | 148 | 2.0 | 2.0 | 0.00 | 0.00 | 0.00 | 89 | 1009.5 |
| 20260505085511 | 71 | 161 | 0.0 | 1.0 | 0.00 | 0.00 | 0.00 | 89 | 1009.6 |
| 20260505085011 | 71 | 171 | 0.0 | 4.0 | 0.00 | 0.00 | 0.00 | 89 | 1009.6 |
| 20260505084511 | 71 | 183 | 1.0 | 4.0 | 0.00 | 0.00 | 0.00 | 89 | 1009.5 |
| 20260505084011 | 71 | 188 | 1.0 | 2.0 | 0.00 | 0.00 | 0.00 | 88 | 1009.5 |
| 20260505083511 | 71 | 185 | 2.0 | 2.0 | 0.00 | 0.00 | 0.00 | 88 | 1009.6 |
| 20260505083011 | 71 | 185 | 1.0 | 3.0 | 0.00 | 0.00 | 0.00 | 88 | 1009.9 |
| 20260505082511 | 71 | 209 | 0.0 | 3.0 | 0.00 | 0.00 | 0.00 | 88 | 1010.0 |
| 20260505082011 | 71 | 183 | 0.0 | 4.0 | 0.00 | 0.00 | 0.00 | 88 | 1010.1 |
| 20260505081511 | 71 | 163 | 0.0 | 4.0 | 0.00 | 0.00 | 0.00 | 88 | 1010.0 |
| 20260505081011 | 71 | 123 | 2.0 | 3.0 | 0.00 | 0.00 | 0.00 | 87 | 1010.0 |
| 20260505080511 | 71 | 100 | 0.0 | 2.0 | 0.00 | 0.00 | 0.00 | 87 | 1010.1 |
| 20260505080011 | 71 | 178 | 0.0 | 2.0 | 0.00 | 0.00 | 0.00 | 87 | 1010.2 |
| 20260505075511 | 71 | 158 | 0.0 | 2.0 | 0.00 | 0.00 | 0.00 | 87 | 1010.1 |
| 20260505075011 | 72 | 154 | 1.0 | 2.0 | 0.00 | 0.00 | 0.00 | 87 | 1010.2 |
| 20260505074511 | 71 | 154 | 0.0 | 2.0 | 0.00 | 0.00 | 0.00 | 87 | 1010.2 |
| 20260505074011 | 71 | 134 | 0.0 | 5.0 | 0.00 | 0.00 | 0.00 | 87 | 1010.2 |
| 20260505073511 | 71 | 183 | 0.0 | 5.0 | 0.00 | 0.00 | 0.00 | 86 | 1010.2 |
| 20260505073011 | 71 | 140 | 0.0 | 2.0 | 0.00 | 0.00 | 0.00 | 86 | 1010.2 |
| 20260505072011 | 71 | 183 | 0.0 | 2.0 | 0.00 | 0.00 | 0.00 | 86 | 1010.4 |
| 20260505071510 | 71 | 210 | 0.0 | 4.0 | 0.00 | 0.00 | 0.00 | 86 | 1010.4 |
| 20260505071011 | 71 | 192 | 2.0 | 4.0 | 0.00 | 0.00 | 0.00 | 86 | 1010.5 |
| 20260505070511 | 71 | 144 | 1.0 | 2.0 | 0.00 | 0.00 | 0.00 | 86 | 1010.5 |
| 20260505070011 | 71 | 201 | 0.0 | 2.0 | 0.00 | 0.00 | 0.00 | 86 | 1010.5 |
| 20260505065510 | 71 | 188 | 0.0 | 5.0 | 0.00 | 0.00 | 0.00 | 86 | 1010.7 |
| 20260505065011 | 71 | 174 | 0.0 | 5.0 | 0.00 | 0.00 | 0.00 | 86 | 1010.7 |
| 20260505064011 | 71 | 163 | 1.0 | 3.0 | 0.00 | 0.00 | 0.00 | 85 | 1010.6 |
| 20260505063511 | 71 | 154 | 0.0 | 2.0 | 0.00 | 0.00 | 0.00 | 85 | 1010.8 |
| 20260505063011 | 71 | 173 | 1.0 | 4.0 | 0.00 | 0.00 | 0.00 | 85 | 1010.9 |
| 20260505062511 | 71 | 190 | 2.0 | 4.0 | 0.00 | 0.00 | 0.00 | 85 | 1010.9 |
| 20260505062011 | 71 | 165 | 2.0 | 3.0 | 0.00 | 0.00 | 0.00 | 85 | 1010.9 |
| 20260505061511 | 71 | 156 | 1.0 | 3.0 | 0.00 | 0.00 | 0.00 | 84 | 1011.0 |
| 20260505061010 | 71 | 180 | 0.0 | 2.0 | 0.00 | 0.00 | 0.00 | 84 | 1011.1 |
| 20260505060510 | 71 | 148 | 0.0 | 2.0 | 0.00 | 0.00 | 0.00 | 84 | 1011.2 |
| 20260505055510 | 71 | 156 | 0.0 | 3.0 | 0.00 | 0.00 | 0.00 | 83 | 1011.2 |
| 20260505055010 | 71 | 243 | 1.0 | 3.0 | 0.00 | 0.00 | 0.00 | 83 | 1011.2 |
| 20260505054510 | 72 | 181 | 0.0 | 4.0 | 0.00 | 0.00 | 0.00 | 83 | 1011.1 |
| 20260505054010 | 72 | 165 | 1.0 | 4.0 | 0.00 | 0.00 | 0.00 | 83 | 1011.2 |
| 20260505053510 | 72 | 170 | 2.0 | 3.0 | 0.00 | 0.00 | 0.00 | 83 | 1011.3 |
| 20260505053010 | 72 | 172 | 0.0 | 2.0 | 0.00 | 0.00 | 0.00 | 83 | 1011.4 |
| 20260505052510 | 72 | 202 | 0.0 | 4.0 | 0.00 | 0.00 | 0.00 | 82 | 1011.5 |
| 20260505052010 | 72 | 204 | 1.0 | 4.0 | 0.00 | 0.00 | 0.00 | 82 | 1011.5 |
| 20260505051511 | 72 | 183 | 2.0 | 4.0 | 0.00 | 0.00 | 0.00 | 82 | 1011.4 |
| 20260505051010 | 72 | 195 | 0.0 | 3.0 | 0.00 | 0.00 | 0.00 | 82 | 1011.5 |
| 20260505050510 | 72 | 240 | 0.0 | 4.0 | 0.00 | 0.00 | 0.00 | 81 | 1011.5 |
| 20260505041510 | 73 | 98 | 1.0 | 8.0 | 0.00 | 0.00 | 0.00 | 79 | 1011.5 |
| 20260505040510 | 73 | 188 | 3.0 | 9.0 | 0.00 | 0.00 | 0.00 | 78 | 1011.5 |
| 20260505035510 | 74 | 225 | 2.0 | 10.0 | 0.00 | 0.00 | 0.00 | 78 | 1011.7 |
| 20260505035010 | 74 | 183 | 1.0 | 7.0 | 0.00 | 0.00 | 0.00 | 78 | 1011.6 |
| 20260505034510 | 74 | 158 | 2.0 | 7.0 | 0.00 | 0.00 | 0.00 | 78 | 1011.7 |
| 20260505034010 | 74 | 246 | 1.0 | 7.0 | 0.00 | 0.00 | 0.00 | 78 | 1011.8 |
| 20260505033511 | 74 | 219 | 4.0 | 6.0 | 0.00 | 0.00 | 0.00 | 78 | 1011.9 |
| 20260505033011 | 74 | 206 | 1.0 | 5.0 | 0.00 | 0.00 | 0.00 | 78 | 1012.0 |
| 20260505032511 | 74 | 202 | 2.0 | 5.0 | 0.00 | 0.00 | 0.00 | 78 | 1011.9 |
| 20260505032011 | 74 | 152 | 1.0 | 4.0 | 0.00 | 0.00 | 0.00 | 78 | 1011.9 |
| 20260505031511 | 74 | 162 | 4.0 | 4.0 | 0.00 | 0.00 | 0.00 | 78 | 1011.8 |
| 20260505030511 | 74 | 150 | 1.0 | 11.0 | 0.00 | 0.00 | 0.00 | 77 | 1011.8 |
| 20260505030011 | 74 | 189 | 10.0 | 9.0 | 0.00 | 0.00 | 0.00 | 77 | 1011.7 |
| 20260505025511 | 74 | 156 | 2.0 | 9.0 | 0.00 | 0.00 | 0.00 | 77 | 1011.6 |
| 20260505024011 | 74 | 191 | 3.0 | 8.0 | 0.00 | 0.00 | 0.00 | 77 | 1011.7 |
| 20260505023511 | 74 | 204 | 1.0 | 5.0 | 0.00 | 0.00 | 0.00 | 77 | 1011.8 |
| 20260505023011 | 74 | 186 | 1.0 | 8.0 | 0.00 | 0.00 | 0.00 | 77 | 1011.8 |
| 20260505022511 | 74 | 192 | 0.0 | 10.0 | 0.00 | 0.00 | 0.00 | 76 | 1011.7 |
| 20260505022011 | 74 | 219 | 2.0 | 10.0 | 0.00 | 0.00 | 0.00 | 76 | 1011.7 |
| 20260505021011 | 75 | 175 | 3.0 | 9.0 | 0.00 | 0.00 | 0.00 | 76 | 1011.6 |
| 20260505020511 | 75 | 193 | 2.0 | 9.0 | 0.00 | 0.00 | 0.00 | 75 | 1011.5 |
| 20260505020011 | 75 | 129 | 3.0 | 10.0 | 0.00 | 0.00 | 0.00 | 75 | 1011.4 |
| 20260505014011 | 75 | 164 | 1.0 | 8.0 | 0.00 | 0.00 | 0.00 | 74 | 1011.4 |
| 20260505013511 | 75 | 156 | 2.0 | 8.0 | 0.00 | 0.00 | 0.00 | 74 | 1011.2 |
| 20260505013011 | 76 | 190 | 1.0 | 7.0 | 0.00 | 0.00 | 0.00 | 74 | 1011.2 |
| 20260505012511 | 76 | 98 | 1.0 | 7.0 | 0.00 | 0.00 | 0.00 | 74 | 1011.1 |
| 20260505011511 | 76 | 141 | 0.0 | 6.0 | 0.00 | 0.00 | 0.00 | 74 | 1011.2 |
| 20260505010511 | 76 | 188 | 1.0 | 3.0 | 0.00 | 0.00 | 0.00 | 73 | 1011.2 |
| 20260505010010 | 76 | 183 | 1.0 | 5.0 | 0.00 | 0.00 | 0.00 | 72 | 1011.1 |
| 20260505005511 | 76 | 190 | 1.0 | 5.0 | 0.00 | 0.00 | 0.00 | 72 | 1011.2 |
| 20260505005010 | 77 | 212 | 0.0 | 7.0 | 0.00 | 0.00 | 0.00 | 71 | 1011.1 |
| 20260505004511 | 77 | 227 | 2.0 | 7.0 | 0.00 | 0.00 | 0.00 | 71 | 1010.9 |
| 20260505004010 | 77 | 162 | 2.0 | 4.0 | 0.00 | 0.00 | 0.00 | 70 | 1010.8 |
| 20260505002510 | 78 | 196 | 3.0 | 6.0 | 0.00 | 0.00 | 0.00 | 69 | 1010.7 |
| 20260505001510 | 78 | 279 | 1.0 | 10.0 | 0.00 | 0.00 | 0.00 | 69 | 1010.8 |
| 20260505001010 | 78 | 134 | 3.0 | 7.0 | 0.00 | 0.00 | 0.00 | 68 | 1010.8 |
| 20260505000510 | 78 | 265 | 2.0 | 6.0 | 0.00 | 0.00 | 0.00 | 69 | 1010.9 |
| 20260504235510 | 78 | 116 | 6.0 | 5.0 | 0.00 | 0.00 | 0.00 | 69 | 1010.8 |
| 20260504235010 | 79 | 168 | 4.0 | 6.0 | 0.00 | 0.00 | 0.00 | 69 | 1010.8 |
| 20260504234511 | 79 | 163 | 1.0 | 6.0 | 0.00 | 0.00 | 0.00 | 69 | 1010.8 |
| 20260504234011 | 79 | 139 | 0.0 | 6.0 | 0.00 | 0.00 | 0.00 | 68 | 1011.0 |
| 20260504233511 | 79 | 178 | 1.0 | 9.0 | 0.00 | 0.00 | 0.00 | 67 | 1011.0 |
| 20260504233010 | 79 | 158 | 1.0 | 9.0 | 0.00 | 0.00 | 0.00 | 66 | 1011.1 |
| 20260504232510 | 79 | 50 | 2.0 | 8.0 | 0.00 | 0.00 | 0.00 | 66 | 1011.0 |
| 20260504232010 | 79 | 217 | 2.0 | 5.0 | 0.00 | 0.00 | 0.00 | 66 | 1011.1 |
| 20260504231510 | 80 | 127 | 2.0 | 9.0 | 0.00 | 0.00 | 0.00 | 66 | 1011.3 |
| 20260504231010 | 80 | 168 | 2.0 | 11.0 | 0.00 | 0.00 | 0.00 | 66 | 1011.2 |
| 20260504230510 | 80 | 146 | 4.0 | 12.0 | 0.00 | 0.00 | 0.00 | 65 | 1011.4 |
| 20260504230010 | 80 | 135 | 2.0 | 12.0 | 0.00 | 0.00 | 0.00 | 65 | 1011.4 |
| 20260504225511 | 80 | 221 | 1.0 | 10.0 | 0.00 | 0.00 | 0.00 | 64 | 1011.3 |
| 20260504225010 | 80 | 185 | 2.0 | 10.0 | 0.00 | 0.00 | 0.00 | 64 | 1011.2 |
| 20260504224510 | 80 | 172 | 2.0 | 8.0 | 0.00 | 0.00 | 0.00 | 63 | 1011.3 |
| 20260504224010 | 81 | 183 | 1.0 | 10.0 | 0.00 | 0.00 | 0.00 | 63 | 1011.4 |
| 20260504223511 | 81 | 122 | 3.0 | 10.0 | 0.00 | 0.00 | 0.00 | 62 | 1011.4 |
| 20260504223010 | 81 | 175 | 5.0 | 10.0 | 0.00 | 0.00 | 0.00 | 62 | 1011.5 |
| 20260504222510 | 81 | 133 | 3.0 | 8.0 | 0.00 | 0.00 | 0.00 | 61 | 1011.6 |
| 20260504222010 | 81 | 206 | 2.0 | 8.0 | 0.00 | 0.00 | 0.00 | 61 | 1011.6 |
| 20260504221010 | 82 | 220 | 0.0 | 5.0 | 0.00 | 0.00 | 0.00 | 61 | 1011.7 |
| 20260504220010 | 82 | 141 | 1.0 | 12.0 | 0.00 | 0.00 | 0.00 | 60 | 1011.7 |
| 20260504215511 | 82 | 140 | 0.0 | 12.0 | 0.00 | 0.00 | 0.00 | 60 | 1011.7 |
| 20260504215010 | 83 | 196 | 3.0 | 6.0 | 0.00 | 0.00 | 0.00 | 59 | 1011.8 |
| 20260504214510 | 83 | 121 | 2.0 | 5.0 | 0.00 | 0.00 | 0.00 | 59 | 1011.8 |
| 20260504214011 | 83 | 170 | 1.0 | 10.0 | 0.00 | 0.00 | 0.00 | 59 | 1011.9 |
| 20260504213510 | 84 | 133 | 2.0 | 10.0 | 0.00 | 0.00 | 0.00 | 57 | 1011.9 |
| 20260504213010 | 83 | 196 | 2.0 | 7.0 | 0.00 | 0.00 | 0.00 | 59 | 1011.9 |
| 20260504212510 | 83 | 158 | 1.0 | 7.0 | 0.00 | 0.00 | 0.00 | 58 | 1012.0 |
| 20260504210511 | 84 | 284 | 2.0 | 5.0 | 0.00 | 0.00 | 0.00 | 57 | 1012.3 |
| 20260504210011 | 84 | 194 | 2.0 | 8.0 | 0.00 | 0.00 | 0.00 | 56 | 1012.4 |
| 20260504205511 | 84 | 194 | 2.0 | 8.0 | 0.00 | 0.00 | 0.00 | 55 | 1012.5 |
| 20260504205011 | 84 | 148 | 2.0 | 5.0 | 0.00 | 0.00 | 0.00 | 58 | 1012.7 |
| 20260504204511 | 84 | 298 | 1.0 | 5.0 | 0.00 | 0.00 | 0.00 | 57 | 1012.8 |
| 20260504204011 | 84 | 136 | 2.0 | 6.0 | 0.00 | 0.00 | 0.00 | 57 | 1012.8 |
| 20260504203511 | 84 | 129 | 2.0 | 9.0 | 0.00 | 0.00 | 0.00 | 56 | 1012.9 |
| 20260504203011 | 84 | 183 | 2.0 | 9.0 | 0.00 | 0.00 | 0.00 | 55 | 1012.9 |
| 20260504202511 | 85 | 8 | 1.0 | 4.0 | 0.00 | 0.00 | 0.00 | 55 | 1012.9 |
| 20260504202011 | 85 | 209 | 1.0 | 5.0 | 0.00 | 0.00 | 0.00 | 56 | 1013.3 |
| 20260504201511 | 85 | 3 | 1.0 | 5.0 | 0.00 | 0.00 | 0.00 | 56 | 1013.3 |
| 20260504201011 | 85 | 151 | 2.0 | 5.0 | 0.00 | 0.00 | 0.00 | 56 | 1013.4 |
| 20260504200511 | 84 | 310 | 1.0 | 3.0 | 0.00 | 0.00 | 0.00 | 58 | 1013.5 |
| 20260504200011 | 84 | 156 | 1.0 | 5.0 | 0.00 | 0.00 | 0.00 | 56 | 1013.5 |
| 20260504195511 | 84 | 258 | 0.0 | 7.0 | 0.00 | 0.00 | 0.00 | 55 | 1013.7 |
| 20260504195011 | 84 | 180 | 3.0 | 7.0 | 0.00 | 0.00 | 0.00 | 55 | 1013.8 |
| 20260504194511 | 84 | 185 | 1.0 | 4.0 | 0.00 | 0.00 | 0.00 | 57 | 1013.9 |
| 20260504194011 | 84 | 124 | 2.0 | 9.0 | 0.00 | 0.00 | 0.00 | 56 | 1013.9 |
| 20260504193011 | 83 | 180 | 3.0 | 9.0 | 0.00 | 0.00 | 0.00 | 57 | 1014.0 |
| 20260504192511 | 83 | 123 | 6.0 | 10.0 | 0.00 | 0.00 | 0.00 | 57 | 1014.2 |
| 20260504191511 | 83 | 121 | 2.0 | 5.0 | 0.00 | 0.00 | 0.00 | 59 | 1014.3 |
| 20260504191011 | 83 | 263 | 3.0 | 4.0 | 0.00 | 0.00 | 0.00 | 57 | 1014.4 |
| 20260504190511 | 83 | 66 | 2.0 | 12.0 | 0.00 | 0.00 | 0.00 | 58 | 1014.5 |
| 20260504185511 | 82 | 265 | 0.0 | 7.0 | 0.00 | 0.00 | 0.00 | 57 | 1014.5 |
| 20260504185011 | 82 | 358 | 0.0 | 10.0 | 0.00 | 0.00 | 0.00 | 59 | 1014.6 |
| 20260504184511 | 82 | 163 | 4.0 | 12.0 | 0.00 | 0.00 | 0.00 | 57 | 1014.7 |
| 20260504184011 | 82 | 165 | 10.0 | 12.0 | 0.00 | 0.00 | 0.00 | 58 | 1014.7 |
| 20260504183011 | 82 | 147 | 3.0 | 6.0 | 0.00 | 0.00 | 0.00 | 57 | 1014.6 |
| 20260504182511 | 82 | 196 | 0.0 | 8.0 | 0.00 | 0.00 | 0.00 | 56 | 1014.7 |
| 20260504182011 | 82 | 278 | 4.0 | 8.0 | 0.00 | 0.00 | 0.00 | 59 | 1014.9 |
| 20260504181511 | 81 | 173 | 4.0 | 8.0 | 0.00 | 0.00 | 0.00 | 57 | 1015.0 |
| 20260504180010 | 81 | 43 | 1.0 | 10.0 | 0.00 | 0.00 | 0.00 | 59 | 1015.1 |
| 20260504175011 | 81 | 122 | 4.0 | 10.0 | 0.00 | 0.00 | 0.00 | 56 | 1015.3 |
| 20260504174510 | 81 | 157 | 3.0 | 10.0 | 0.00 | 0.00 | 0.00 | 58 | 1015.3 |
| 20260504174011 | 81 | 142 | 2.0 | 6.0 | 0.00 | 0.00 | 0.00 | 59 | 1015.3 |
| 20260504173011 | 81 | 234 | 3.0 | 5.0 | 0.00 | 0.00 | 0.00 | 58 | 1015.5 |
| 20260504172511 | 81 | 169 | 1.0 | 6.0 | 0.00 | 0.00 | 0.00 | 58 | 1015.7 |
| 20260504171510 | 81 | 250 | 1.0 | 8.0 | 0.00 | 0.00 | 0.00 | 58 | 1015.9 |
| 20260504171010 | 81 | 129 | 8.0 | 10.0 | 0.00 | 0.00 | 0.00 | 60 | 1015.9 |
| 20260504170511 | 80 | 218 | 1.0 | 10.0 | 0.00 | 0.00 | 0.00 | 58 | 1016.0 |
| 20260504151010 | 76 | 218 | 4.0 | 7.0 | 0.00 | 0.00 | 0.00 | 64 | 1016.8 |
| 20260504150510 | 76 | 278 | 1.0 | 11.0 | 0.00 | 0.00 | 0.00 | 65 | 1016.8 |
| 20260504141011 | 72 | 124 | 1.0 | 8.0 | 0.00 | 0.00 | 0.00 | 68 | 1016.8 |
| 20260504140511 | 72 | 167 | 2.0 | 8.0 | 0.00 | 0.00 | 0.00 | 67 | 1016.6 |